Temperature
32 31 31 32 33 33 33 33 32 33 34 34 33 32 32 32 31 31 29 29 28 27 27 26 25 24 23 22 21 21 20 20 20 20 20 20 20 20 19 19 19 19 19 19
32 31 32 34 34 34 33 32 33 33 35 34 33 32 32 33 32 31 30 29 29 28 27 26 25 24 23 22 21 21 20 20 20 20 20 20 20 20 19 19 19 19 19 19
31 32 34 34 33 33 33 33 33 33 34 34 33 32 31 32 32 32 31 30 29 28 27 26 25 25 24 22 22 21 21 21 20 20 20 20 20 20 19 19 19 19 19 19
32 34 34 33 33 33 32 34 34 33 33 32 32 30 31 31 31 32 31 31 30 29 28 26 26 25 24 23 22 21 21 21 20 20 20 20 20 20 19 19 19 19 19 19
32 33 33 33 33 33 33 34 34 33 32 32 32 31 31 32 30 31 32 31 30 29 28 27 26 25 25 23 22 22 21 21 21 20 20 20 20 20 19 19 19 19 19 19
33 34 34 34 34 34 33 33 33 33 32 30 31 31 30 31 31 32 32 31 30 30 28 28 27 25 25 24 23 22 21 21 21 21 20 20 20 20 19 19 19 19 19 19
32 33 34 34 33 33 33 32 31 30 30 30 31 31 30 31 33 33 32 31 30 29 28 27 26 26 25 24 23 22 22 21 21 21 20 20 20 20 19 19 19 19 19 19
31 32 33 34 33 33 33 33 30 29 29 29 30 30 31 32 33 33 32 31 30 30 29 28 27 26 25 24 23 22 22 21 21 21 21 20 20 20 19 19 19 19 19 19
32 31 33 34 34 34 32 33 33 31 31 30 30 31 32 32 32 32 32 31 30 30 29 28 27 26 25 24 23 23 22 21 21 21 21 20 20 20 19 19 19 19 19 18
32 31 32 34 34 34 33 33 32 31 29 29 29 30 30 31 31 31 31 30 30 29 29 28 27 26 25 25 24 23 22 21 21 21 20 20 20 20 19 19 19 19 19 18
33 31 32 32 32 31 32 32 32 32 31 30 29 30 31 29 30 30 30 30 30 29 28 27 27 26 25 25 24 23 22 21 21 20 20 20 20 19 19 19 19 19 18 18
32 32 31 32 33 33 32 32 32 30 30 30 30 30 32 30 30 30 30 29 29 29 28 27 27 26 25 24 24 23 22 21 21 20 20 20 19 19 19 19 19 18 18 18
31 31 29 30 32 32 32 32 32 32 31 30 30 30 32 30 30 30 29 29 28 28 28 27 26 26 25 24 24 23 22 22 21 20 20 20 19 19 19 19 19 18 18 18
30 30 30 29 30 31 30 31 31 30 30 29 29 30 30 30 30 30 29 29 28 27 27 26 26 25 24 24 23 23 22 22 21 20 20 19 19 19 19 19 18 18 18 18
30 30 30 30 31 31 31 30 31 30 30 30 30 30 30 30 30 29 29 28 28 27 26 26 25 24 24 23 23 22 22 21 21 20 20 19 19 19 19 18 18 18 18 17
30 29 29 29 30 31 30 31 31 31 31 30 30 30 30 30 29 28 28 28 27 26 26 25 24 24 23 23 22 22 21 21 20 20 20 19 19 19 18 18 18 18 17 17
28 28 27 28 29 29 29 30 31 31 31 30 29 30 30 29 29 28 28 27 27 26 26 25 24 23 23 22 22 21 21 20 20 20 19 19 19 18 18 18 18 17 17 17
27 27 27 27 27 26 29 31 31 31 30 31 30 30 30 30 29 28 27 27 26 26 25 24 24 23 22 22 21 21 20 20 20 19 19 19 18 18 18 18 18 17 17 17
28 27 26 26 26 27 29 30 30 30 29 30 30 30 30 29 28 27 26 26 25 25 24 24 23 23 22 21 21 20 20 20 19 19 19 18 18 18 18 18 17 17 17 17
28 27 26 26 25 26 28 30 30 30 28 29 29 29 29 28 28 27 26 25 25 24 24 23 23 22 22 21 21 20 19 19 19 19 18 18 18 18 18 17 17 17 17 16
26 26 26 25 25 27 28 29 29 27 26 27 27 27 27 27 27 26 25 25 24 24 23 23 22 22 21 20 20 20 19 19 18 18 18 18 18 18 17 17 17 17 16 16
26 25 25 25 25 25 27 28 27 26 26 26 26 26 25 25 25 25 24 24 24 23 23 22 22 21 20 20 20 19 19 18 18 18 18 17 17 17 17 17 17 16 16 16
25 26 25 25 25 25 26 26 26 26 26 25 25 25 25 24 24 24 23 23 23 22 22 21 21 20 20 19 19 19 18 18 18 17 17 17 17 17 17 17 16 16 16 15
24 25 25 24 25 25 25 25 25 25 24 24 24 24 24 24 23 23 22 22 22 22 21 21 20 20 19 19 19 18 18 18 17 17 17 17 17 17 17 16 16 16 15 15
22 23 23 23 24 24 24 24 24 24 24 23 23 23 23 23 22 22 21 21 21 21 20 20 19 19 18 18 18 18 18 17 17 17 17 16 16 17 16 16 16 16 16 15
22 22 22 22 22 22 22 22 23 23 22 22 22 22 22 22 21 21 21 20 19 19 19 19 19 18 18 18 17 17 17 17 17 17 16 16 16 16 16 16 16 16 15 15
Wind_Speed
12 12 13 12 10 10 9 8 6 5 4 5 4 7 11 13 13 14 14 14 14 14 15 14 13 13 13 12 10 8 7 7 5 3 3 3 2 2 2 3 4 3 2 2
13 15 15 13 10 9 10 9 8 6 5 6 5 7 9 12 14 15 15 15 15 15 15 14 14 14 14 13 11 9 8 8 6 4 3 3 3 2 3 3 3 3 2 1
17 13 12 12 11 12 11 11 9 8 7 6 6 6 7 9 9 12 14 14 15 16 17 15 14 14 14 13 12 10 9 8 7 6 4 3 3 1 3 3 2 2 2 1
17 15 13 13 12 12 12 11 10 10 9 7 8 6 8 11 12 12 13 14 15 16 17 17 16 15 14 14 13 11 9 8 7 6 5 6 4 3 3 3 3 2 2 1
16 15 15 15 13 12 12 12 12 13 12 12 11 8 7 11 12 14 14 14 13 15 17 18 17 15 14 14 14 12 10 9 8 6 6 5 4 3 3 3 4 2 3 2
18 16 15 15 13 13 13 13 14 13 12 13 11 10 6 6 10 12 13 13 12 13 15 15 15 14 12 14 13 13 11 9 8 7 6 5 4 4 3 3 4 3 2 2
19 19 16 14 14 14 14 13 10 10 10 10 9 8 4 5 6 9 11 11 12 12 14 15 15 15 13 13 13 13 13 11 10 9 7 6 5 5 5 4 4 3 2 2
17 16 15 15 16 14 14 14 12 11 9 7 9 7 5 6 5 6 9 11 12 12 13 15 15 14 13 13 13 13 13 11 11 9 7 6 6 5 4 4 3 3 2 2
14 14 13 14 15 15 15 14 14 13 14 10 8 6 5 7 6 5 7 10 10 11 11 13 14 14 13 13 12 13 12 11 10 10 8 7 6 5 4 4 4 3 2 3
15 13 13 12 12 15 16 14 10 11 10 11 9 7 3 5 6 7 7 10 11 11 10 9 10 13 13 13 13 13 13 12 10 9 8 8 7 5 4 4 4 3 2 2
16 16 15 12 13 14 14 17 14 11 11 11 9 5 2 3 5 7 7 7 9 10 10 10 9 10 11 12 12 13 12 12 11 10 8 7 7 6 5 4 4 3 3 3
13 14 14 15 15 15 16 15 14 12 11 12 11 5 3 4 3 5 7 7 6 7 8 9 9 10 10 11 10 10 11 12 11 9 8 6 5 5 5 5 4 4 4 4
8 11 13 14 13 14 14 13 14 14 12 12 12 6 5 6 5 5 6 8 6 6 8 8 8 9 9 9 9 9 9 10 10 9 9 7 7 7 6 5 5 4 4 4
6 12 14 15 10 8 10 12 13 13 12 11 11 7 4 4 3 4 6 7 7 6 6 8 7 8 8 8 7 7 8 8 9 9 9 8 7 6 6 5 5 4 4 4
9 14 15 15 14 13 12 13 14 15 15 14 11 9 6 3 3 3 5 5 7 6 7 7 7 7 7 7 7 6 6 6 7 8 8 8 7 6 5 5 5 4 4 5
11 13 13 15 16 16 16 15 16 17 14 13 12 9 5 3 2 3 5 6 6 6 6 6 7 8 7 7 7 7 6 6 6 7 7 7 6 6 5 5 5 4 4 4
9 10 12 14 15 16 19 15 13 12 12 10 11 9 6 4 5 5 4 3 5 6 6 7 7 7 6 6 7 7 6 6 7 6 5 6 6 6 5 6 5 5 5 5
11 10 10 13 13 18 14 11 11 10 10 9 9 7 6 5 4 3 3 2 3 5 5 6 6 8 8 7 6 6 7 6 6 6 6 6 6 5 5 5 5 5 4 4
14 11 11 12 15 17 14 10 10 11 10 7 6 5 3 2 3 3 4 4 4 5 4 4 5 6 7 7 7 6 7 6 6 6 6 6 5 5 5 5 4 4 4 4
15 12 13 13 16 17 11 7 7 9 8 6 5 5 5 4 5 3 2 4 3 5 5 5 4 5 7 6 8 7 7 6 6 5 5 5 5 5 5 5 4 4 4 4
14 14 15 16 17 14 10 8 8 10 5 4 6 5 4 4 3 1 2 2 3 3 5 5 5 5 5 5 6 6 6 6 5 4 4 5 4 5 5 5 4 4 4 4
12 12 13 14 16 12 7 6 6 4 2 2 3 4 4 5 5 4 2 2 2 2 4 5 5 5 5 5 6 6 5 5 5 4 4 5 5 5 5 5 4 4 4 3
11 10 9 9 7 3 4 5 6 5 3 2 3 2 3 3 2 2 2 2 1 3 3 3 4 4 4 5 5 6 5 5 5 5 5 5 5 4 5 5 5 5 4 4
9 8 9 9 8 7 6 6 5 5 4 4 4 4 3 2 1 1 1 1 0 2 4 4 4 4 4 3 4 4 5 5 5 5 4 5 5 5 5 4 5 4 4 3
10 10 10 10 9 9 8 7 7 6 5 5 4 3 3 3 2 1 1 1 1 1 1 2 3 4 4 3 2 3 4 5 5 5 4 5 5 5 5 4 3 4 3 3
11 10 10 9 7 7 7 7 7 7 6 7 6 4 3 4 3 2 1 1 2 1 1 2 2 3 4 4 3 3 4 4 5 5 5 4 4 4 5 5 3 2 2 4
Wind_Direction
232 237 246 249 240 255 270 283 290 275 210 225 209 185 183 181 180 176 179 180 179 178 172 167 167 160 155 155 157 161 162 151 159 169 173 163 159 159 125 123 124 130 145 149
238 238 245 256 261 262 267 275 271 267 255 242 225 219 203 191 193 186 181 183 185 179 172 168 169 166 163 161 161 163 168 162 174 172 173 168 153 166 128 105 129 146 136 128
241 243 247 250 257 260 262 264 267 269 267 257 248 242 208 208 212 196 186 185 187 181 175 173 176 172 167 165 170 174 171 166 178 170 171 164 140 140 120 134 148 151 132 144
245 243 248 250 249 256 261 266 270 268 266 263 244 245 217 202 204 204 196 188 191 183 177 175 178 178 173 171 171 167 166 166 172 178 178 173 171 170 154 152 147 152 154 159
245 242 241 246 247 255 266 276 275 274 269 267 256 252 230 200 204 201 195 189 190 180 176 177 177 178 178 173 170 166 162 165 169 181 182 186 174 166 153 142 138 166 160 155
251 250 247 246 244 247 260 271 267 265 265 263 262 258 239 217 199 198 192 184 180 173 172 172 170 170 178 173 168 166 162 165 170 183 181 184 179 169 159 155 157 182 163 163
244 245 244 245 248 242 241 252 259 259 250 257 265 258 216 224 211 192 181 174 172 173 170 169 170 168 172 171 168 166 164 169 173 180 182 182 181 175 165 177 174 193 178 167
241 242 236 230 239 248 244 249 252 265 270 269 261 243 211 202 199 176 164 163 167 173 172 173 172 170 171 169 165 163 165 171 176 180 182 179 180 189 184 186 184 198 189 167
247 248 238 231 233 240 248 248 256 267 274 275 263 248 193 187 177 156 155 155 166 167 171 175 170 170 171 171 168 167 164 170 178 183 180 178 184 189 185 178 194 191 178 176
251 259 250 238 240 236 244 256 259 258 269 272 265 260 240 194 170 160 169 168 169 164 165 164 168 169 174 175 171 169 166 171 175 180 183 183 183 186 189 184 183 177 170 166
248 253 252 240 231 240 235 243 250 260 264 270 268 262 190 210 196 173 171 168 161 163 165 165 168 169 170 172 171 172 169 170 175 182 180 178 177 185 187 185 179 176 177 177
246 253 256 250 238 235 245 246 247 250 256 264 271 261 167 164 167 169 165 149 158 164 161 162 165 168 170 169 172 170 173 176 176 175 170 172 170 175 182 182 177 180 181 183
272 255 253 253 242 227 235 244 252 259 258 258 264 249 166 167 169 155 142 139 148 162 156 162 165 167 166 162 162 166 175 177 174 172 170 171 182 183 183 184 179 180 182 187
280 254 252 256 261 257 244 250 252 256 257 257 257 258 244 193 183 161 146 149 148 158 159 161 153 151 150 149 152 159 171 169 170 168 172 174 184 186 184 183 181 182 186 193
259 257 258 264 268 267 259 251 247 247 253 259 259 252 251 221 201 178 146 148 153 163 171 155 149 142 142 143 148 152 163 165 165 165 172 179 181 180 179 181 180 183 191 196
260 266 271 264 262 262 263 253 250 249 248 253 265 264 251 233 208 169 159 156 153 166 164 147 145 145 147 150 153 153 161 160 156 161 170 170 170 173 179 183 177 184 192 191
267 273 274 270 270 270 257 256 257 259 259 252 259 262 253 217 211 196 175 170 160 161 159 150 153 154 158 155 151 157 163 157 155 157 164 163 167 173 178 190 182 191 195 195
260 271 269 267 268 261 262 270 273 264 261 261 256 247 234 231 215 166 149 165 159 163 163 155 167 162 161 161 154 157 160 157 161 164 166 168 171 176 180 179 183 192 194 198
248 252 259 264 260 257 258 262 260 261 262 271 277 281 254 211 226 162 134 141 150 154 154 161 175 163 149 158 157 160 167 166 169 172 172 173 174 181 182 179 185 188 189 194
236 239 247 252 257 259 263 279 293 281 264 285 291 290 283 253 243 232 148 139 158 153 157 156 160 155 153 159 157 163 171 170 176 178 177 174 174 181 183 181 181 188 190 197
230 232 241 250 255 257 276 284 279 264 272 340 337 335 310 312 324 63 130 139 153 154 154 151 153 151 151 157 155 163 173 175 175 175 175 174 179 185 175 171 182 186 193 197
251 240 238 246 254 257 298 291 282 299 4 349 336 360 2 360 17 38 63 108 139 153 156 154 142 140 147 158 162 171 169 164 161 169 175 174 181 192 179 172 184 188 188 196
258 265 259 253 253 263 297 293 295 310 312 313 307 337 358 340 7 23 33 38 91 139 140 152 143 138 143 154 164 173 164 156 161 170 174 174 183 183 167 174 182 188 190 206
272 295 280 271 263 279 290 289 295 308 316 315 325 341 336 328 320 356 6 358 45 117 142 154 147 147 144 151 163 160 154 157 164 170 175 178 177 176 167 180 188 191 189 199
286 290 286 277 277 278 277 289 296 308 312 308 301 303 311 319 320 339 333 348 56 78 120 138 147 151 149 142 153 159 150 159 169 174 182 190 189 182 171 172 184 188 187 195
271 275 274 280 301 295 299 298 285 286 292 292 291 299 297 297 295 291 271 170 162 188 157 156 168 163 158 157 160 161 160 170 176 184 193 203 199 181 174 173 161 91 152 149
Height
1481 1484 1484 1478 1475 1476 1476 1476 1479 1473 1465 1469 1473 1477 1478 1481 1484 1488 1494 1498 1501 1505 1510 1514 1517 1520 1523 1525 1527 1529 1531 1533 1535 1536 1538 1539 1541 1542 1543 1543 1544 1544 1545 1545
1480 1482 1474 1470 1469 1471 1474 1478 1477 1471 1464 1466 1472 1475 1473 1476 1479 1483 1488 1493 1497 1502 1507 1511 1515 1518 1521 1523 1525 1528 1530 1532 1533 1535 1537 1539 1540 1541 1542 1543 1543 1544 1545 1545
1479 1474 1469 1470 1471 1474 1475 1476 1475 1473 1466 1464 1471 1478 1475 1473 1475 1479 1483 1488 1493 1497 1502 1507 1512 1515 1518 1521 1523 1526 1528 1530 1532 1534 1536 1538 1540 1541 1542 1542 1543 1544 1544 1544
1470 1466 1467 1469 1471 1471 1477 1466 1466 1468 1473 1478 1475 1494 1479 1471 1473 1476 1479 1483 1488 1493 1498 1503 1508 1512 1516 1519 1521 1523 1526 1528 1530 1533 1535 1537 1538 1540 1541 1541 1542 1543 1543 1544
1468 1464 1465 1468 1467 1466 1469 1463 1464 1466 1471 1477 1473 1482 1479 1467 1475 1472 1474 1478 1483 1488 1494 1499 1504 1509 1513 1517 1519 1521 1524 1526 1529 1531 1533 1535 1537 1539 1540 1541 1541 1542 1543 1543
1461 1459 1458 1460 1460 1461 1463 1464 1465 1465 1471 1489 1478 1481 1483 1471 1468 1467 1469 1474 1479 1484 1490 1495 1500 1505 1510 1514 1517 1519 1521 1524 1526 1529 1531 1533 1535 1537 1538 1539 1540 1541 1542 1542
1464 1458 1455 1456 1461 1460 1462 1474 1488 1492 1492 1491 1473 1476 1475 1462 1458 1460 1464 1470 1476 1482 1487 1493 1497 1501 1506 1510 1513 1516 1518 1521 1524 1526 1529 1531 1533 1535 1536 1537 1538 1540 1540 1541
1470 1468 1454 1453 1458 1462 1461 1467 1488 1500 1497 1488 1475 1478 1467 1455 1457 1458 1462 1467 1473 1479 1484 1489 1494 1498 1502 1507 1510 1513 1515 1518 1521 1524 1526 1529 1531 1533 1534 1536 1537 1538 1539 1539
1463 1463 1449 1448 1450 1454 1462 1462 1459 1473 1477 1485 1480 1469 1459 1455 1456 1458 1461 1466 1472 1477 1482 1487 1491 1496 1500 1504 1507 1510 1513 1516 1519 1522 1524 1526 1529 1530 1532 1533 1535 1536 1537 1537
1452 1462 1451 1446 1449 1449 1452 1454 1462 1474 1490 1496 1485 1476 1471 1462 1459 1459 1463 1467 1471 1476 1480 1484 1489 1492 1497 1501 1505 1508 1511 1513 1517 1520 1522 1524 1526 1528 1530 1531 1532 1534 1535 1535
1447 1458 1455 1450 1454 1457 1456 1458 1460 1463 1468 1485 1491 1481 1459 1461 1460 1461 1465 1468 1471 1474 1478 1482 1487 1490 1494 1499 1502 1506 1509 1511 1514 1517 1519 1522 1523 1526 1527 1529 1530 1531 1532 1533
1446 1451 1458 1451 1442 1444 1449 1451 1456 1472 1475 1471 1477 1476 1453 1455 1457 1461 1464 1467 1471 1474 1477 1481 1485 1489 1492 1496 1500 1503 1506 1509 1511 1514 1516 1519 1521 1523 1525 1526 1527 1528 1529 1530
1449 1454 1467 1463 1453 1445 1448 1448 1451 1454 1461 1468 1477 1473 1450 1454 1457 1460 1463 1467 1471 1475 1477 1481 1484 1487 1490 1494 1497 1501 1504 1507 1509 1511 1514 1516 1519 1520 1522 1523 1525 1526 1527 1527
1452 1454 1461 1469 1460 1450 1453 1452 1451 1457 1465 1469 1468 1466 1457 1455 1457 1458 1462 1467 1471 1474 1477 1479 1482 1485 1488 1492 1495 1498 1501 1504 1507 1509 1511 1513 1515 1517 1519 1521 1522 1523 1524 1525
1451 1455 1452 1449 1446 1445 1448 1449 1450 1454 1456 1462 1459 1459 1457 1455 1457 1460 1462 1466 1469 1473 1476 1478 1482 1484 1487 1490 1493 1496 1499 1502 1505 1506 1508 1511 1513 1515 1517 1518 1519 1520 1521 1522
1451 1454 1453 1454 1448 1446 1448 1446 1446 1447 1447 1451 1453 1455 1450 1452 1456 1460 1463 1465 1469 1472 1475 1478 1481 1484 1486 1489 1492 1494 1498 1500 1503 1505 1507 1509 1510 1512 1514 1515 1516 1517 1518 1519
1454 1457 1462 1461 1450 1449 1454 1444 1443 1444 1442 1447 1455 1452 1450 1452 1457 1459 1461 1464 1466 1470 1474 1477 1480 1482 1485 1488 1490 1493 1496 1498 1501 1503 1505 1506 1508 1509 1511 1513 1513 1514 1515 1516
1457 1460 1462 1461 1462 1473 1449 1435 1437 1440 1442 1441 1444 1445 1447 1451 1454 1457 1460 1462 1465 1468 1472 1475 1478 1480 1484 1487 1489 1491 1494 1496 1498 1500 1502 1504 1505 1507 1508 1509 1510 1511 1512 1513
1450 1457 1463 1464 1466 1459 1444 1437 1438 1443 1445 1442 1443 1445 1447 1450 1453 1456 1459 1462 1465 1467 1470 1473 1476 1478 1481 1484 1487 1489 1492 1494 1496 1498 1499 1501 1502 1504 1505 1506 1507 1508 1509 1510
1447 1450 1459 1462 1468 1466 1449 1438 1438 1442 1450 1444 1445 1447 1449 1450 1454 1456 1457 1460 1464 1467 1469 1472 1474 1477 1479 1481 1484 1487 1489 1491 1493 1495 1497 1498 1500 1501 1502 1503 1504 1505 1506 1507
1450 1453 1457 1459 1461 1451 1442 1439 1440 1455 1456 1449 1449 1450 1451 1453 1453 1456 1458 1460 1463 1465 1468 1470 1472 1475 1477 1480 1482 1484 1487 1488 1490 1492 1494 1496 1497 1498 1500 1501 1502 1503 1504 1504
1449 1452 1455 1456 1461 1458 1443 1442 1447 1450 1449 1450 1451 1452 1454 1454 1455 1456 1458 1459 1462 1464 1467 1469 1471 1473 1476 1478 1480 1482 1485 1486 1488 1490 1492 1493 1495 1496 1497 1498 1499 1501 1501 1502
1445 1445 1446 1449 1451 1448 1447 1447 1448 1448 1450 1451 1452 1452 1454 1455 1456 1457 1459 1460 1462 1463 1466 1468 1470 1473 1475 1477 1478 1481 1482 1484 1486 1488 1489 1490 1492 1493 1494 1495 1497 1498 1499 1499
1444 1445 1445 1446 1445 1445 1447 1447 1449 1449 1450 1451 1452 1453 1454 1456 1457 1458 1459 1460 1462 1463 1465 1468 1469 1471 1473 1475 1477 1479 1481 1482 1484 1485 1487 1488 1489 1491 1492 1493 1494 1495 1496 1496
1451 1451 1447 1447 1446 1447 1447 1448 1450 1450 1450 1451 1453 1454 1455 1455 1457 1458 1459 1461 1461 1463 1465 1467 1469 1470 1472 1474 1475 1477 1478 1480 1481 1483 1485 1486 1488 1489 1490 1491 1492 1492 1493 1494
1451 1451 1451 1449 1448 1450 1448 1449 1449 1450 1451 1452 1452 1452 1454 1455 1456 1458 1459 1460 1462 1464 1465 1467 1468 1470 1471 1472 1474 1475 1477 1478 1479 1481 1483 1485 1486 1487 1488 1489 1489 1490 1491 1491